Wind_Speed
64 65 65 75 77 75 72 70 69 70 76 81 82 80 82 83 74 69 62 52 42 35 32 34 38 41 42 37 33 35 40 43 47 47 45 45 43 43 41 40 42 43 44
66 63 77 73 71 72 69 69 68 72 77 82 86 82 86 79 73 66 58 48 41 34 34 39 43 42 36 35 37 37 40 50 52 50 50 50 49 47 47 45 45 46 44
66 70 68 68 69 68 70 68 70 75 78 82 89 85 86 78 69 62 54 47 39 36 38 42 45 44 42 37 37 37 40 48 56 58 56 53 52 50 49 47 47 47 48
62 62 65 65 66 67 68 70 73 75 81 82 91 87 83 76 66 57 49 40 36 36 39 42 44 43 43 39 38 39 40 43 55 60 61 59 55 51 52 53 52 53 52
59 61 63 64 64 66 68 71 75 78 82 84 92 87 81 72 61 53 44 33 31 34 36 38 42 43 45 41 41 39 38 41 47 60 63 63 58 55 57 58 58 54 56
59 60 63 61 63 65 69 72 77 83 83 86 92 87 80 68 58 52 41 39 37 36 39 42 44 47 48 39 35 34 36 40 41 52 62 65 62 61 60 60 61 60 58
60 60 59 60 63 65 70 76 81 85 81 89 91 86 76 66 59 51 45 42 42 42 44 48 50 48 45 37 32 32 32 36 39 42 51 60 64 64 64 63 63 63 63
59 57 58 59 62 67 74 80 80 82 84 90 87 84 75 65 57 49 45 45 44 45 48 46 46 42 33 33 32 34 31 32 33 37 41 44 52 61 67 67 66 65 64
56 56 58 61 65 74 79 76 80 81 88 88 84 80 72 66 57 50 49 48 46 45 43 43 35 29 29 31 30 27 27 29 33 36 37 40 45 48 49 52 59 66 70
55 57 59 63 71 76 74 78 81 86 88 84 82 75 69 65 55 53 50 45 46 43 36 29 26 27 27 24 25 25 26 29 31 35 38 39 41 42 44 45 45 49 55
55 57 62 67 71 73 79 79 84 88 84 81 78 70 64 60 54 53 46 42 39 33 27 29 27 28 27 27 29 32 32 31 32 33 34 35 37 38 39 39 39 41 42
57 61 66 69 73 78 80 83 89 84 81 79 72 65 60 53 50 48 39 32 31 31 30 30 31 31 32 33 34 35 38 38 38 38 39 39 40 39 39 39 39 41 41
60 65 67 72 76 79 82 88 83 80 79 74 67 62 56 48 45 36 28 28 27 28 28 30 32 34 36 36 37 36 37 37 37 38 38 37 36 37 37 36 37 36 35
62 66 72 75 79 82 85 81 78 78 74 68 62 56 49 44 31 28 27 27 27 28 29 30 31 32 33 36 38 39 40 41 42 42 41 39 36 35 33 31 30 29 28
65 70 76 78 83 84 79 77 77 73 70 63 56 47 40 27 27 28 28 28 29 31 32 34 38 41 42 43 44 44 45 45 46 46 43 41 40 40 40 37 35 34 32
67 74 76 81 83 78 75 74 71 70 63 56 45 37 25 25 26 27 29 31 33 38 40 42 43 45 45 44 43 41 39 40 41 38 36 35 32 34 37 38 38 36 35
70 76 80 81 77 75 73 70 67 63 56 46 36 25 24 24 26 27 30 34 36 40 43 45 44 43 43 40 38 34 34 34 33 31 29 27 26 26 26 27 29 33 35
75 78 79 75 74 72 70 65 61 57 47 36 21 21 21 25 27 29 31 34 35 36 36 38 40 39 37 35 33 31 32 30 28 27 26 23 20 19 18 18 20 24 26
78 79 73 71 71 69 63 58 54 46 34 18 16 16 21 23 26 29 30 32 34 36 40 39 35 35 37 37 35 31 29 26 24 23 21 18 15 13 13 13 15 18 21
81 74 70 69 67 63 57 52 43 31 14 12 13 23 30 32 34 38 43 43 45 43 43 42 40 42 40 38 34 29 25 21 19 18 15 11 8 7 8 8 10 12 16
75 69 68 67 63 57 53 43 33 11 8 13 20 24 30 37 41 46 52 50 48 46 44 42 44 42 39 36 31 26 22 18 16 14 10 5 3 1 1 4 6 9 12
69 66 66 62 58 53 46 33 15 5 13 19 22 21 25 33 40 46 52 55 54 51 48 46 45 43 39 34 29 23 18 16 14 12 7 5 4 4 4 5 7 9 13
66 65 63 59 55 50 35 21 4 12 21 24 23 23 25 30 34 41 49 56 55 54 50 47 46 44 40 34 28 22 18 16 15 13 11 11 10 10 9 9 10 13 16
65 64 60 56 53 42 27 9 10 24 27 26 25 24 32 37 40 42 52 56 55 52 50 50 50 47 43 37 31 26 23 21 20 19 18 17 16 15 15 15 16 17 19
64 63 58 52 48 31 19 4 18 29 32 28 26 31 35 35 39 44 52 59 58 55 53 53 53 52 49 44 39 33 31 30 28 27 25 24 23 22 21 21 21 20 21
62 59 55 51 40 25 10 14 29 33 33 29 29 32 30 32 35 39 46 54 63 59 56 56 57 60 59 56 52 47 42 40 38 34 33 31 29 28 27 26 25 24 24
Wind_Direction
316 314 312 310 310 313 315 317 322 328 329 332 331 329 329 328 326 322 318 313 305 296 293 292 296 299 302 290 278 269 251 239 231 232 230 232 235 238 243 247 251 256 262
315 308 309 309 311 315 314 319 324 326 328 332 333 330 330 328 327 323 318 313 304 294 289 289 295 302 300 284 278 270 258 244 243 243 233 232 237 239 245 247 252 259 265
308 303 307 309 314 314 316 321 324 326 327 332 333 332 331 328 325 322 315 311 302 290 286 287 293 298 302 290 272 274 264 249 243 245 247 243 240 242 248 251 257 262 267
305 307 308 313 314 314 319 322 324 327 328 329 333 332 331 328 324 322 318 312 303 299 294 292 293 295 294 288 274 278 266 257 245 243 247 249 249 250 252 256 258 263 267
308 309 312 314 313 318 321 323 325 328 328 329 334 332 331 328 325 322 320 312 303 301 299 298 297 297 299 290 275 276 271 260 253 245 246 249 251 253 254 257 262 263 268
309 312 313 312 316 321 323 324 326 327 328 329 333 332 331 327 324 318 312 306 299 293 290 296 299 299 305 294 281 274 272 263 261 251 248 250 252 254 256 259 262 266 268
312 313 311 315 320 321 322 324 327 327 328 329 332 331 330 327 322 315 306 301 297 295 297 295 298 298 299 290 284 287 279 264 262 261 253 252 253 255 258 259 261 264 268
312 310 314 317 320 323 323 324 325 327 328 331 329 330 329 329 325 319 309 301 299 295 298 300 303 304 300 295 292 291 285 270 265 264 263 261 257 256 257 259 261 263 266
309 311 314 317 319 323 323 324 325 327 327 329 328 329 328 329 325 320 315 310 306 303 305 310 311 309 302 296 295 291 286 278 272 270 270 267 267 266 265 263 260 262 264
309 313 315 319 322 322 322 325 326 328 328 327 328 327 327 327 323 320 320 316 313 311 316 315 313 309 307 302 298 296 294 287 280 274 272 270 268 269 268 267 267 267 267
310 314 317 320 320 321 323 324 326 327 326 326 327 326 326 324 321 322 320 318 320 321 321 321 319 316 308 300 295 297 293 288 284 282 278 275 272 270 270 269 269 268 269
311 314 317 319 320 322 324 325 326 326 325 326 326 325 324 321 320 320 319 322 323 324 323 320 316 313 310 305 302 301 299 296 293 290 286 282 276 274 272 271 270 270 271
314 315 317 319 321 323 325 325 325 325 327 327 326 325 324 322 323 322 323 322 325 325 323 319 317 316 312 310 308 304 300 298 294 290 285 281 279 277 273 270 269 268 268
314 317 320 321 323 325 326 325 325 326 327 327 327 326 326 327 329 330 328 329 330 326 323 322 317 314 310 309 307 305 302 298 294 289 286 283 279 276 271 268 265 264 264
314 318 321 323 325 325 326 325 326 327 327 327 328 329 330 334 335 336 337 335 331 331 329 324 320 315 312 310 308 305 301 299 295 292 288 281 274 268 266 263 260 259 259
316 319 321 324 325 327 326 326 327 326 326 328 331 331 341 342 344 344 341 340 339 333 329 326 321 319 318 315 311 307 306 303 302 299 297 290 281 270 266 262 259 258 257
316 320 324 325 325 325 326 327 326 325 328 332 334 338 346 349 351 352 346 340 336 330 327 325 321 317 316 318 317 312 312 308 308 306 301 297 290 282 271 262 255 251 252
318 322 325 324 325 326 326 327 327 327 332 339 344 350 358 1 1 353 343 338 332 326 328 327 326 326 323 323 326 320 318 317 313 308 305 300 291 283 275 262 248 239 238
321 324 324 323 325 326 327 327 328 330 335 352 7 13 25 27 13 359 350 338 336 342 341 340 341 340 339 337 333 328 323 321 315 311 306 299 291 282 274 261 246 231 224
321 324 323 324 326 328 328 328 330 336 358 19 50 67 48 39 31 24 22 15 4 358 355 352 349 349 344 339 336 332 327 324 321 319 313 306 297 285 266 245 228 219 214
322 323 323 325 328 329 329 330 331 354 48 91 84 65 49 40 31 26 22 12 4 4 3 360 356 352 349 346 343 341 338 340 337 337 331 331 347 326 216 198 200 198 192
322 323 325 328 328 329 330 330 339 64 116 108 84 65 51 41 33 32 26 20 14 14 13 9 5 1 357 356 355 354 355 358 4 4 6 35 48 74 98 125 148 166 170
322 323 327 328 329 330 332 334 87 128 128 104 86 67 53 44 31 27 27 24 22 19 17 16 14 11 10 10 11 16 21 28 33 39 45 55 72 88 93 106 124 141 151
320 324 327 328 329 330 329 341 139 146 122 105 90 75 61 51 42 36 37 33 29 26 26 25 23 23 24 26 31 38 45 49 53 60 67 77 80 85 91 101 111 122 136
320 323 325 328 328 330 326 147 153 145 124 111 98 83 70 61 54 47 44 41 37 36 35 34 34 36 37 40 45 51 57 60 64 70 76 78 78 83 88 94 103 113 122
320 322 324 328 327 329 319 161 159 145 130 122 108 94 82 67 57 51 49 49 47 44 43 44 44 46 48 51 54 56 60 64 67 73 77 78 78 82 87 92 97 102 115
Height
10762 10752 10743 10735 10725 10715 10705 10693 10680 10667 10653 10639 10624 10610 10595 10581 10566 10552 10540 10532 10526 10523 10521 10517 10515 10512 10508 10505 10503 10502 10501 10503 10504 10505 10508 10509 10511 10514 10517 10519 10520 10521 10522
10747 10739 10732 10723 10714 10703 10693 10680 10667 10655 10642 10626 10610 10595 10581 10566 10552 10539 10528 10520 10515 10513 10510 10508 10505 10502 10498 10495 10492 10491 10489 10490 10491 10492 10495 10497 10500 10503 10505 10508 10509 10509 10510
10738 10732 10723 10714 10702 10692 10681 10668 10656 10643 10630 10616 10600 10582 10567 10553 10540 10529 10517 10509 10505 10503 10501 10497 10494 10490 10486 10483 10480 10477 10476 10476 10477 10478 10478 10482 10485 10490 10491 10494 10494 10496 10497
10731 10721 10712 10700 10690 10681 10669 10657 10645 10631 10617 10604 10589 10571 10554 10540 10528 10517 10508 10500 10496 10493 10490 10487 10482 10479 10474 10469 10467 10464 10462 10461 10462 10464 10464 10467 10471 10476 10478 10479 10481 10482 10484
10717 10708 10698 10688 10680 10669 10657 10645 10632 10619 10605 10591 10575 10559 10545 10530 10517 10508 10501 10495 10490 10485 10481 10476 10471 10466 10461 10456 10454 10452 10449 10448 10447 10449 10450 10452 10457 10461 10463 10465 10466 10471 10469
10706 10696 10687 10679 10668 10658 10646 10634 10621 10607 10594 10579 10564 10547 10532 10519 10509 10500 10494 10488 10483 10476 10469 10464 10460 10453 10447 10441 10440 10439 10438 10436 10435 10435 10436 10438 10443 10447 10448 10451 10452 10453 10456
10694 10686 10678 10668 10658 10648 10636 10624 10612 10597 10582 10567 10551 10536 10522 10509 10498 10489 10483 10477 10472 10465 10459 10452 10446 10439 10432 10427 10427 10426 10425 10424 10423 10422 10422 10425 10428 10430 10434 10437 10436 10438 10440
10684 10677 10668 10659 10649 10638 10626 10614 10601 10588 10573 10556 10540 10525 10511 10499 10487 10478 10471 10465 10459 10453 10446 10439 10431 10425 10420 10417 10415 10414 10413 10412 10412 10411 10410 10411 10412 10414 10415 10419 10421 10423 10425
10675 10668 10659 10650 10639 10628 10616 10603 10591 10577 10563 10546 10529 10514 10500 10488 10476 10468 10459 10451 10445 10438 10431 10425 10419 10414 10411 10409 10405 10403 10402 10401 10400 10399 10398 10398 10396 10397 10398 10401 10402 10404 10407
10667 10660 10650 10640 10629 10617 10605 10592 10579 10566 10550 10534 10519 10503 10489 10477 10467 10458 10448 10437 10430 10424 10420 10415 10411 10407 10403 10401 10398 10396 10394 10391 10389 10387 10385 10384 10384 10383 10384 10386 10387 10387 10388
10659 10650 10641 10630 10619 10606 10593 10580 10567 10553 10538 10523 10507 10493 10481 10468 10457 10447 10439 10430 10422 10416 10411 10407 10404 10400 10396 10394 10390 10386 10382 10380 10378 10376 10374 10372 10372 10371 10371 10372 10373 10373 10374
10650 10640 10630 10620 10607 10594 10580 10567 10554 10538 10524 10509 10494 10482 10471 10460 10450 10440 10431 10424 10418 10412 10407 10402 10397 10392 10388 10383 10379 10375 10371 10367 10364 10362 10360 10358 10358 10357 10357 10358 10359 10360 10360
10640 10629 10619 10607 10595 10581 10567 10554 10538 10524 10510 10496 10483 10471 10460 10450 10441 10433 10427 10420 10415 10410 10404 10397 10391 10385 10378 10373 10368 10364 10359 10355 10351 10347 10345 10343 10342 10342 10342 10343 10344 10346 10347
10628 10617 10606 10593 10581 10568 10556 10540 10525 10512 10498 10485 10473 10461 10450 10441 10434 10428 10424 10418 10412 10405 10398 10392 10385 10378 10371 10365 10359 10354 10348 10343 10338 10333 10330 10329 10328 10328 10327 10329 10331 10333 10335
10615 10604 10593 10580 10566 10554 10542 10527 10514 10500 10487 10475 10464 10454 10445 10436 10430 10425 10419 10413 10406 10398 10391 10384 10377 10370 10362 10355 10348 10341 10334 10328 10322 10316 10312 10311 10311 10312 10312 10315 10317 10320 10324
10603 10593 10581 10569 10554 10543 10530 10516 10505 10491 10479 10468 10459 10449 10443 10436 10429 10423 10416 10408 10400 10392 10385 10376 10367 10358 10350 10343 10335 10328 10321 10313 10307 10302 10298 10295 10294 10294 10296 10298 10302 10306 10310
10593 10582 10570 10556 10543 10533 10520 10509 10496 10482 10471 10461 10454 10448 10441 10434 10429 10422 10414 10406 10398 10389 10380 10370 10360 10349 10340 10331 10323 10316 10308 10301 10295 10290 10286 10283 10281 10281 10281 10284 10287 10291 10296
10583 10570 10558 10545 10534 10523 10511 10500 10487 10474 10465 10458 10453 10448 10441 10435 10430 10422 10414 10405 10395 10385 10374 10363 10351 10341 10331 10322 10313 10305 10297 10291 10285 10280 10276 10273 10272 10271 10271 10272 10275 10279 10284
10571 10560 10548 10536 10526 10515 10503 10491 10480 10470 10464 10458 10454 10450 10446 10440 10432 10423 10413 10402 10391 10380 10368 10355 10344 10334 10323 10313 10303 10296 10289 10282 10277 10273 10269 10266 10264 10264 10264 10265 10267 10271 10275
10561 10549 10538 10528 10518 10507 10496 10484 10475 10469 10464 10460 10458 10454 10449 10442 10434 10425 10413 10400 10389 10377 10363 10350 10338 10326 10316 10306 10297 10288 10282 10276 10271 10267 10263 10261 10259 10259 10259 10260 10262 10265 10269
10551 10540 10529 10520 10510 10499 10488 10478 10472 10468 10464 10463 10461 10457 10452 10446 10437 10426 10414 10402 10390 10376 10361 10347 10334 10323 10311 10301 10291 10283 10277 10272 10267 10263 10260 10258 10257 10256 10257 10258 10260 10262 10266
10542 10532 10521 10512 10502 10492 10482 10475 10471 10469 10467 10465 10462 10461 10457 10450 10441 10430 10418 10405 10392 10375 10361 10347 10335 10322 10309 10298 10288 10281 10275 10270 10266 10263 10260 10258 10257 10257 10257 10258 10260 10262 10266
10533 10523 10514 10505 10494 10485 10478 10473 10471 10470 10471 10468 10466 10465 10460 10453 10446 10436 10424 10410 10394 10379 10366 10352 10338 10324 10311 10299 10289 10282 10276 10271 10268 10265 10262 10260 10260 10259 10260 10261 10262 10264 10267
10524 10515 10507 10498 10489 10481 10475 10472 10472 10473 10473 10472 10471 10469 10464 10458 10452 10444 10431 10418 10402 10389 10374 10360 10345 10330 10316 10304 10294 10287 10281 10276 10271 10268 10266 10266 10266 10266 10266 10266 10267 10269 10272
10515 10508 10499 10491 10483 10477 10472 10472 10474 10475 10475 10475 10474 10472 10468 10465 10459 10452 10440 10428 10414 10400 10386 10372 10357 10341 10327 10314 10304 10296 10289 10284 10279 10276 10275 10275 10274 10274 10274 10274 10275 10277 10279
10508 10501 10492 10485 10478 10473 10471 10472 10474 10477 10477 10478 10477 10475 10473 10469 10465 10460 10451 10440 10429 10415 10402 10388 10374 10357 10343 10329 10318 10310 10303 10296 10291 10288 10286 10285 10284 10283 10283 10284 10285 10287 10289